Tracking 19562 objects as of 25-Mar-2019
HD Live streaming from Space Station
objects crossing your sky now

LEMUR 2 GUSTAVO

Track LEMUR 2 GUSTAVO now!
10-day predictions
LEMUR 2 GUSTAVO is classified as:


NORAD ID: 43885
Int'l Code: 2018-111K
Perigee: 577.4 km
Apogee: 592.2 km
Inclination: 97.7 °
Period: 96.2 minutes
Semi major axis: 6955 km
RCS: Unknown
Launch date: December 27, 2018
Source: United States (US)
Launch site: VOSTOCHNY COSMODROME (VOSTO)
aabbcc
Your satellite tracking list
Your tracking list is empty




NASA's NSSDC Master Catalog

Two Line Element Set (TLE):
1 43885U 18111K   19084.20699492  .00000343  00000-0  35311-4 0  9990
2 43885  97.7253 353.5398 0010643 314.7925  45.2430 14.96529994 11169
Source of the keplerian elements: AFSPC